• In Deutschland
  • Länderverzeichnis
  • Für 7 Tage
  • Wassertemperatur
  • Satellitenkarten
  • Wetterkarte
  • Widgets
  • user-avatar
    Anmelden

    Stündliche Wetter Obertshausen

    Heute, 11 Dezember, Montag

    Zeit Temperatur Niederschläge Wind Luftdruck Luftfeuchtigkeit
    00:00 +4°C° 0,7 mm 6 m/S 726 mmHg 90%
    01:00 +5°C° 0 mm 5 m/S 727 mmHg 89%
    02:00 +5°C° 0,1 mm 4 m/S 727 mmHg 91%
    03:00 +4°C° 0,1 mm 3 m/S 727 mmHg 93%
    04:00 +5°C° 0,1 mm 2 m/S 728 mmHg 94%
    05:00 +4°C° 0,2 mm 2 m/S 727 mmHg 95%
    06:00 +4°C° 0,2 mm 2 m/S 727 mmHg 96%
    07:00 +4°C° 0 mm 2 m/S 727 mmHg 97%
    08:00 +4°C° 2 mm 2 m/S 727 mmHg 96%
    09:00 +4°C° 2 mm 3 m/S 726 mmHg 96%
    10:00 +4°C° 2 mm 4 m/S 726 mmHg 96%
    11:00 +4°C° 2,4 mm 4 m/S 726 mmHg 94%
    12:00 +4°C° 2,4 mm 4 m/S 725 mmHg 92%
    13:00 +5°C° 0 mm 3 m/S 724 mmHg 92%
    14:00 +5°C° 1,1 mm 3 m/S 725 mmHg 93%
    15:00 +5°C° 1,1 mm 3 m/S 725 mmHg 94%
    16:00 +5°C° 1,1 mm 3 m/S 725 mmHg 95%
    17:00 +5°C° 0,3 mm 3 m/S 725 mmHg 94%
    18:00 +5°C° 0,3 mm 4 m/S 726 mmHg 93%
    19:00 +5°C° 0,3 mm 4 m/S 726 mmHg 91%
    20:00 +5°C° 0,1 mm 4 m/S 727 mmHg 89%
    21:00 +5°C° 0,1 mm 5 m/S 727 mmHg 86%
    22:00 +5°C° 0,1 mm 5 m/S 727 mmHg 84%
    23:00 +5°C° 0 mm 5 m/S 728 mmHg 82%

    Morgen, 12 Dezember, Dienstag

    Zeit Temperatur Niederschläge Wind Luftdruck Luftfeuchtigkeit
    00:00 +4°C° 0 mm 6 m/S 728 mmHg 81%
    01:00 +4°C° 0 mm 6 m/S 729 mmHg 80%
    02:00 +3°C° 0,1 mm 6 m/S 730 mmHg 79%
    03:00 +2°C° 0,1 mm 7 m/S 732 mmHg 79%
    04:00 +2°C° 0,1 mm 7 m/S 733 mmHg 78%
    05:00 0°C° 0 mm 7 m/S 735 mmHg 78%
    06:00 0°C° 0 mm 7 m/S 736 mmHg 78%
    07:00 +1°C° 0 mm 6 m/S 738 mmHg 79%
    08:00 +1°C° 0 mm 6 m/S 740 mmHg 78%
    09:00 +1°C° 0 mm 6 m/S 741 mmHg 77%
    10:00 +1°C° 0 mm 5 m/S 743 mmHg 77%
    11:00 +1°C° 0 mm 5 m/S 744 mmHg 76%
    12:00 +2°C° 0 mm 6 m/S 745 mmHg 74%
    13:00 +2°C° 0 mm 6 m/S 746 mmHg 73%
    14:00 +2°C° 0,1 mm 5 m/S 746 mmHg 74%
    15:00 +1°C° 0,1 mm 5 m/S 747 mmHg 76%
    16:00 +1°C° 0,1 mm 5 m/S 748 mmHg 77%
    17:00 +1°C° 0 mm 4 m/S 749 mmHg 78%
    18:00 0°C° 0 mm 4 m/S 749 mmHg 79%
    19:00 +1°C° 0 mm 3 m/S 750 mmHg 79%
    20:00 +1°C° 0 mm 3 m/S 751 mmHg 81%
    21:00 0°C° 0 mm 3 m/S 751 mmHg 83%
    22:00 0°C° 0 mm 3 m/S 752 mmHg 85%
    23:00 0°C° 0 mm 3 m/S 752 mmHg 87%

    übermorgen, 13 Dezember, Mittwoch

    Zeit Temperatur Niederschläge Wind Luftdruck Luftfeuchtigkeit
    00:00 0°C° 0 mm 3 m/S 752 mmHg 89%
    01:00 -1°C° 0 mm 3 m/S 752 mmHg 90%
    02:00 -1°C° 0 mm 3 m/S 752 mmHg 90%
    03:00 -1°C° 0 mm 3 m/S 752 mmHg 91%
    04:00 -1°C° 0 mm 3 m/S 752 mmHg 91%
    05:00 -1°C° 0 mm 4 m/S 751 mmHg 89%
    06:00 -1°C° 0 mm 4 m/S 751 mmHg 88%
    07:00 -1°C° 0 mm 4 m/S 751 mmHg 86%
    08:00 0°C° 0 mm 5 m/S 750 mmHg 83%
    09:00 0°C° 0 mm 5 m/S 749 mmHg 80%
    10:00 +1°C° 0 mm 6 m/S 749 mmHg 77%
    11:00 +1°C° 0,1 mm 6 m/S 748 mmHg 74%
    12:00 +2°C° 0,1 mm 6 m/S 747 mmHg 72%
    13:00 +2°C° 0,1 mm 7 m/S 746 mmHg 70%
    14:00 +2°C° 0,8 mm 6 m/S 745 mmHg 73%
    15:00 +2°C° 0,8 mm 6 m/S 744 mmHg 76%
    16:00 +2°C° 0,8 mm 6 m/S 743 mmHg 79%
    17:00 +2°C° 0,6 mm 6 m/S 742 mmHg 81%
    18:00 +3°C° 0,6 mm 6 m/S 742 mmHg 83%
    19:00 +3°C° 0,6 mm 6 m/S 741 mmHg 85%
    20:00 +3°C° 0,2 mm 6 m/S 740 mmHg 85%
    21:00 +3°C° 0,2 mm 6 m/S 739 mmHg 85%
    22:00 +4°C° 0,2 mm 7 m/S 738 mmHg 85%
    23:00 +4°C° 0,3 mm 7 m/S 738 mmHg 85%

    14 Dezember, Donnerstag

    Zeit Temperatur Niederschläge Wind Luftdruck Luftfeuchtigkeit
    00:00 +4°C° 0,3 mm 7 m/S 737 mmHg 85%
    01:00 +5°C° 0,3 mm 7 m/S 737 mmHg 85%
    02:00 +4°C° 0,4 mm 7 m/S 737 mmHg 83%
    03:00 +4°C° 0,4 mm 6 m/S 738 mmHg 81%
    04:00 +3°C° 0,4 mm 5 m/S 738 mmHg 79%
    05:00 +3°C° 0,4 mm 5 m/S 739 mmHg 77%
    06:00 +2°C° 0,4 mm 6 m/S 739 mmHg 75%
    07:00 +2°C° 0,4 mm 6 m/S 740 mmHg 73%
    08:00 +2°C° 0 mm 5 m/S 740 mmHg 73%
    09:00 +2°C° 0 mm 5 m/S 741 mmHg 73%
    10:00 +1°C° 0 mm 4 m/S 741 mmHg 73%
    11:00 +3°C° 0,4 mm 4 m/S 741 mmHg 75%
    12:00 +3°C° 0,4 mm 4 m/S 740 mmHg 78%
    13:00 +4°C° 0,4 mm 4 m/S 739 mmHg 80%
    14:00 +4°C° 0,9 mm 4 m/S 738 mmHg 82%
    15:00 +4°C° 0,9 mm 4 m/S 737 mmHg 84%
    16:00 +4°C° 0,9 mm 4 m/S 736 mmHg 86%
    17:00 +4°C° 0,9 mm 4 m/S 735 mmHg 86%
    18:00 +4°C° 0,9 mm 4 m/S 733 mmHg 86%
    19:00 +3°C° 0,9 mm 4 m/S 732 mmHg 86%
    20:00 +2°C° 0,2 mm 5 m/S 733 mmHg 83%
    21:00 +2°C° 0,2 mm 6 m/S 733 mmHg 80%
    22:00 +2°C° 0,2 mm 7 m/S 733 mmHg 76%
    23:00 +2°C° 0 mm 7 m/S 734 mmHg 77%

    15 Dezember, Freitag

    Zeit Temperatur Niederschläge Wind Luftdruck Luftfeuchtigkeit
    00:00 +1°C° 0 mm 6 m/S 735 mmHg 77%
    01:00 +1°C° 0 mm 5 m/S 736 mmHg 78%
    02:00 0°C° 0 mm 5 m/S 736 mmHg 79%
    03:00 0°C° 0 mm 4 m/S 737 mmHg 80%
    04:00 -1°C° 0 mm 4 m/S 737 mmHg 82%
    05:00 -1°C° 0,1 mm 4 m/S 737 mmHg 83%
    06:00 -1°C° 0,1 mm 4 m/S 737 mmHg 84%
    07:00 0°C° 0,1 mm 4 m/S 737 mmHg 85%
    08:00 0°C° 0 mm 4 m/S 737 mmHg 85%
    09:00 0°C° 0 mm 4 m/S 737 mmHg 85%
    10:00 0°C° 0 mm 4 m/S 737 mmHg 84%
    11:00 +1°C° 0 mm 4 m/S 737 mmHg 82%
    12:00 +3°C° 0 mm 4 m/S 736 mmHg 80%
    13:00 +2°C° 0 mm 5 m/S 736 mmHg 78%
    14:00 +3°C° 0,1 mm 4 m/S 736 mmHg 79%
    15:00 +3°C° 0,1 mm 4 m/S 736 mmHg 80%
    16:00 +3°C° 0,1 mm 3 m/S 736 mmHg 82%
    17:00 +3°C° 0,4 mm 3 m/S 737 mmHg 83%
    18:00 +2°C° 0,4 mm 3 m/S 737 mmHg 85%
    19:00 +2°C° 0,4 mm 3 m/S 737 mmHg 87%
    20:00 +3°C° 0 mm 2 m/S 737 mmHg 88%
    21:00 +2°C° 0 mm 2 m/S 738 mmHg 90%
    22:00 +2°C° 0 mm 2 m/S 738 mmHg 91%
    23:00 +1°C° 0 mm 2 m/S 738 mmHg 92%

    16 Dezember, Samstag

    Zeit Temperatur Niederschläge Wind Luftdruck Luftfeuchtigkeit
    00:00 +1°C° 0 mm 2 m/S 739 mmHg 92%
    01:00 +1°C° 0 mm 1 m/S 739 mmHg 93%
    02:00 +1°C° 0 mm 1 m/S 740 mmHg 93%
    03:00 +1°C° 0 mm 1 m/S 740 mmHg 93%
    04:00 +1°C° 0 mm 1 m/S 741 mmHg 94%
    05:00 +2°C° 0 mm 1 m/S 741 mmHg 93%
    06:00 +1°C° 0 mm 2 m/S 742 mmHg 93%
    07:00 +1°C° 0 mm 2 m/S 742 mmHg 92%
    08:00 +1°C° 0 mm 2 m/S 743 mmHg 91%
    09:00 +2°C° 0 mm 2 m/S 744 mmHg 89%
    10:00 +2°C° 0 mm 2 m/S 744 mmHg 88%
    11:00 +1°C° 0 mm 3 m/S 745 mmHg 87%
    12:00 +2°C° 0 mm 3 m/S 745 mmHg 85%
    13:00 +2°C° 0 mm 3 m/S 745 mmHg 84%
    14:00 +2°C° 0,1 mm 3 m/S 746 mmHg 85%
    15:00 +2°C° 0,1 mm 3 m/S 746 mmHg 86%
    16:00 +3°C° 0,1 mm 2 m/S 746 mmHg 86%
    17:00 +2°C° 0,2 mm 3 m/S 747 mmHg 87%
    18:00 +2°C° 0,2 mm 3 m/S 747 mmHg 88%
    19:00 +1°C° 0,2 mm 3 m/S 747 mmHg 89%
    20:00 +1°C° 0,1 mm 3 m/S 748 mmHg 88%
    21:00 +1°C° 0,1 mm 3 m/S 748 mmHg 87%
    22:00 0°C° 0,1 mm 4 m/S 748 mmHg 86%
    23:00 +1°C° 0,1 mm 3 m/S 748 mmHg 87%
    Mehr zeigen